Regional Weather Roundup
Issued by NWS

Home | Current Version | Previous Version | Graphics & Text | Print | Product List | Glossary On
Versions: 1 2 3 4 5 6 7 8 9 10 11 12 13 14 15 16 17 18 19 20 21 22 23 24 25 26 27 28 29 30 31 32 33 34 35 36 37 38 39 40 41 42 43 44 45 46 47 48 49 50
000
ASUS43 KMKX 040010
RWRWI

WISCONSIN REGIONAL WEATHER ROUNDUP
NATIONAL WEATHER SERVICE MILWAUKEE/SULLIVAN WI
600 PM CST TUE MAR 03 2015

NOTE: "FAIR" INDICATES FEW OR NO CLOUDS BELOW 12,000 FEET WITH NO
SIGNIFICANT WEATHER AND/OR OBSTRUCTIONS TO VISIBILITY.

WIZ001-002-006>008-014>016-023>028-040100-
NORTHWEST WISCONSIN

CITY           SKY/WX    TMP DP  RH WIND       PRES   REMARKS
SUPERIOR ARPT  CLEAR     18   3  53 W16       29.73R WCI   3
6HR MIN TEMP:  18; 6HR MAX TEMP:  29;

ASHLAND        CLOUDY    22  10  60 W14G28    29.67R WCI   9
6HR MIN TEMP:  22; 6HR MAX TEMP:  29; 6HR PCP: TRACE;

HAYWARD        CLEAR     22   6  50 NW9G18    29.67R WCI  12
6HR MIN TEMP:  22; 6HR MAX TEMP:  27; 6HR PCP: TRACE;

SIREN          CLEAR     21   5  51 W14G21    29.74R WCI   8
6HR MIN TEMP:  21; 6HR MAX TEMP:  28;

CUMBERLAND     CLEAR     21   7  53 W18       29.71R WCI   6
RICE LAKE      CLEAR     23   8  52 W9G17     29.71R WCI  13
6HR MIN TEMP:  23; 6HR MAX TEMP:  29;

CHETEK         PTCLDY    24   8  50 W13G21    29.70R WCI  12
6HR MIN TEMP:  24; 6HR MAX TEMP:  28;

LADYSMITH      PTCLDY    25  14  61 W22G28    29.66R WCI  11
6HR MIN TEMP:  25; 6HR MAX TEMP:  28; 6HR PCP:  0.01;

EAU CLAIRE     MOCLDY    27  15  61 NW12      29.72R WCI  17
6HR MIN TEMP:  25; 6HR MAX TEMP:  29; 6HR PCP: TRACE;

MENOMONIE      MOCLDY    26  12  54 W18G25    29.74R WCI  13
6HR MIN TEMP:  26; 6HR MAX TEMP:  31;

NEW RICHMOND   CLEAR     21   7  55 W20G25    29.77R WCI   5
6HR MIN TEMP:  21; 6HR MAX TEMP:  29;

OSCEOLA        CLEAR     21   8  57 W16G24    29.81R WCI   7
6HR MIN TEMP:  21; 6HR MAX TEMP:  30; 6HR PCP:  0.01;

$$

WIZ003>005-009-010-017-018-040100-
NORTH CENTRAL WISCONSIN

CITY           SKY/WX    TMP DP  RH WIND       PRES   REMARKS
MANITOWISH WTR LGT SNOW  22  16  78 W13G25    29.57R WCI  10
6HR MIN TEMP:  20; 6HR MAX TEMP:  24;

ARBOR VITAE    LGT SNOW  24  20  83 W5        29.56R WCI  18
6HR MIN TEMP:  22; 6HR MAX TEMP:  26;

WOODRUFF       LGT SNOW  24  20  83 W5        29.56R WCI  18
6HR MIN TEMP:  22; 6HR MAX TEMP:  26;

RHINELANDER    LGT SNOW  23  17  78 W15       29.57R WCI  10
6HR MIN TEMP:  20; 6HR MAX TEMP:  26; 6HR PCP: TRACE;

EAGLE RIVER    LGT SNOW  23  18  81 W8        29.54R WCI  14
6HR MIN TEMP:  21; 6HR MAX TEMP:  25;

LAND O LAKES   LGT SNOW  24  19  83 W7        29.54R WCI  16
6HR MIN TEMP:  22; 6HR MAX TEMP:  26;

PHILLIPS       MOCLDY    23  18  80 W8G18     29.60R WCI  14
6HR MIN TEMP:  22; 6HR MAX TEMP:  26;

TOMAHAWK       FLURRIES  25  17  73 W10G21    29.59R WCI  14
6HR MIN TEMP:  22; 6HR MAX TEMP:  27;

MEDFORD        FLURRIES  25  18  74 W12G20    29.62R WCI  14
6HR MIN TEMP:  22; 6HR MAX TEMP:  26;

MERRILL        LGT SNOW  26  19  75 NW7       29.61R WCI  19
6HR MIN TEMP:  23; 6HR MAX TEMP:  28;

$$

WIZ029-030-035-036-043>047-040100-
CENTRAL WISCONSIN

CITY           SKY/WX    TMP DP  RH WIND       PRES   REMARKS
WAUSAU         CLOUDY    26  19  74 W13       29.61R WCI  15
6HR MIN TEMP:  22; 6HR MAX TEMP:  27; 6HR PCP: TRACE;

MOSINEE        CLOUDY    27  21  80 W13       29.63R WCI  16
MARSHFIELD     CLOUDY    28  20  71 W14       29.65R WCI  17
6HR MIN TEMP:  24; 6HR MAX TEMP:  28; 6HR PCP: TRACE;

STEVENS POINT  CLOUDY    26  19  74 W9G17     29.65R WCI  17
6HR MIN TEMP:  22; 6HR MAX TEMP:  26;

WAUPACA        CLOUDY    30  22  73 W7        29.64S WCI  23
6HR MIN TEMP:  28; 6HR MAX TEMP:  31;

WAUTOMA        CLOUDY    28  23  81 W9        29.67R WCI  19
6HR MIN TEMP:  26; 6HR MAX TEMP:  29;

WISC RAPIDS    CLOUDY    28  19  69 W8        29.68R WCI  20
6HR MIN TEMP:  24; 6HR MAX TEMP:  29;

CAMP DOUGLAS   CLOUDY    30  27  86 W16       29.69R WCI  19
                                      6HR PCP: TRACE;

$$

WIZ011>013-019>022-031-037>040-048>050-040100-
NORTHEAST WISCONSIN

CITY           SKY/WX    TMP DP  RH WIND       PRES   REMARKS
ANTIGO         CLOUDY    25  19  77 W10       29.59R WCI  15
6HR MIN TEMP:  21; 6HR MAX TEMP:  26; 6HR PCP:  0.01;

SHAWANO        CLOUDY    30  20  66 W9        29.62R WCI  22
6HR MIN TEMP:  28; 6HR MAX TEMP:  31;

OCONTO         CLOUDY    26  21  79 SW6       29.61R WCI  20
6HR MIN TEMP:  26; 6HR MAX TEMP:  29;

STURGEON BAY   CLOUDY    27  19  74 W9        29.61R WCI  17
6HR MIN TEMP:  27; 6HR MAX TEMP:  28;

GREEN BAY      CLOUDY    28  21  75 W12       29.63R WCI  18
6HR MIN TEMP:  27; 6HR MAX TEMP:  28; 6HR PCP:  0.01;

MANITOWOC      CLOUDY    27  22  81 W14         N/A  WCI  16
6HR MIN TEMP:  27; 6HR MAX TEMP:  31;

APPLETON       CLOUDY    27  19  74 W12G17    29.64R WCI  16
CLINTONVILLE   CLOUDY    30  19  64 W8G17     29.64R WCI  23
OSHKOSH        CLOUDY    29  21  72 W8        29.65R WCI  21
6HR MIN TEMP:  28; 6HR MAX TEMP:  29;

$$

WIZ032>034-041-042-053>061-040100-
SOUTHWEST WISCONSIN

CITY           SKY/WX    TMP DP  RH WIND       PRES   REMARKS
LA CROSSE      CLOUDY    31  21  66 W13       29.74R WCI  21
6HR MIN TEMP:  28; 6HR MAX TEMP:  34;

SPARTA         CLOUDY    30  22  70 W9        29.72R WCI  22
6HR MIN TEMP:  26; 6HR MAX TEMP:  31;

VIROQUA        CLOUDY    28  22  79 NW17G23   29.71R WCI  16
6HR MIN TEMP:  26; 6HR MAX TEMP:  30;

BOSCOBEL       CLOUDY    32  22  66 W7        29.75R WCI  26
6HR MIN TEMP:  29; 6HR MAX TEMP:  33;

PRAIRIE DU CHI CLOUDY    31  22  69 NW13      29.77R WCI  21
6HR MIN TEMP:  28; 6HR MAX TEMP:  32; 6HR PCP:  0.04;

PLATTEVILLE    CLOUDY    30  25  80 W14G20    29.74R WCI  20
6HR MIN TEMP:  30; 6HR MAX TEMP:  32;

$$

WIZ056-057-062-063-064-067-068-040100-
SOUTH CENTRAL WISCONSIN

CITY           SKY/WX    TMP DP  RH WIND       PRES   REMARKS
REEDSBURG      PTCLDY    29  23  78 W9        29.69R WCI  21
6HR MIN TEMP:  27; 6HR MAX TEMP:  30;

BARABOO/DELLS  CLOUDY    29  22  76 W6        29.69R WCI  23
6HR MIN TEMP:  27; 6HR MAX TEMP:  29;

LONE ROCK      CLOUDY    32  22  66 NW12      29.73R WCI  23
6HR MIN TEMP:  28; 6HR MAX TEMP:  32;

MINERAL POINT  CLOUDY    32  27  80 W12       29.71R WCI  23
MADISON        CLOUDY    30  22  72 NW6       29.71R WCI  24
6HR MIN TEMP:  30; 6HR MAX TEMP:  32; 6HR PCP: TRACE;

MIDDLETON      CLOUDY    31  24  74 W8        29.71R WCI  24
6HR MIN TEMP:  31; 6HR MAX TEMP:  32;

WATERTOWN      CLOUDY    29  24  81 W9        29.69R WCI  21
6HR MIN TEMP:  29; 6HR MAX TEMP:  31;

MONROE         CLOUDY    30  27  86 W14       29.73R WCI  20
JANESVILLE     CLOUDY    32  25  74 W9        29.71R WCI  24
$$

WIZ051-052-058>065-066-070>072-040100-
SOUTHEAST WISCONSIN

CITY           SKY/WX    TMP DP  RH WIND       PRES   REMARKS
MILWAUKEE      CLOUDY    31  23  72 W15       29.69R WCI  20
6HR MIN TEMP:  31; 6HR MAX TEMP:  34; 6HR PCP: TRACE;

WAUKESHA       CLOUDY    28  23  80 W12G21    29.68R WCI  18
MILWAUKEE/TIMM CLOUDY    30  23  74 W13       29.68R WCI  20
RACINE         CLOUDY    32  23  69 W10       29.71R WCI  24
6HR MIN TEMP:  31; 6HR MAX TEMP:  33;

BURLINGTON     CLOUDY    29  23  78 W9        29.72R WCI  20
6HR MIN TEMP:  29; 6HR MAX TEMP:  31;

KENOSHA        CLOUDY    32  26  78 W13G22    29.71R WCI  22
6HR MIN TEMP:  32; 6HR MAX TEMP:  33; 6HR PCP:  0.09;

FOND DU LAC    CLOUDY    29  21  72 W10       29.67R WCI  20
6HR MIN TEMP:  29; 6HR MAX TEMP:  29; 6HR PCP: TRACE;

SHEBOYGAN      CLOUDY    28  20  71 W15       29.65R WCI  16
6HR MIN TEMP:  28; 6HR MAX TEMP:  30;

WEST BEND      CLOUDY    28  21  74 W15G23    29.67R WCI  17
JUNEAU         CLOUDY    28  22  77 W7G16     29.71R WCI  21
6HR MIN TEMP:  27; 6HR MAX TEMP:  29;

$$

LSZ147-162-040100-
LAKE SUPERIOR

STATION/POSITION TIME  TEMP    WIND        PRES    WAVE
                       AIR SEA DIR/SP/G            HT/PER
                 (UTC) (F)     (DEG/KT/KT) (MB)    (FT/S)
DEVILS ISLAND    0000   22     290/ 29/ 34 1004.8R
PORT WING        2340   22     280/ 20/ 26 1005.1R
SAXON HARBOR     2300   26     300/ 18/ 23 1002.7R
$$

LMZ867-665-643>646-040100-
LAKE MICHIGAN

STATION/POSITION TIME  TEMP    WIND        PRES    WAVE


USA.gov is the U.S. government's official web portal to all federal, state and local government web resources and services.